This demonstration page uses our WeatherBlox Daily Observations layout. Learn more.

39.29038, -76.61219

Hourly Observations for October 26, 2015

Temp ( °F °C ) Dew Point ( °F °C ) Humidity (%) Winds ( mph kmh ) Pressure ( in mb ) Visibility ( mi km ) Precip ( " mm )
12:54 am 00:54 undefined 54 12.2 39 3.9 57 57 undefined N/A 30.34 1027 N/A 0 0
1:54 am 01:54 undefined 53 11.7 38 3.3 57 57 undefined N/A 30.33 1027 N/A 0 0
2:54 am 02:54 undefined 52 11.1 38 3.3 59 59 undefined N/A 30.34 1027 N/A 0 0
3:54 am 03:54 undefined 51 10.6 38 3.3 61 61 undefined N/A 30.35 1028 N/A 0 0
4:54 am 04:54 undefined 50 10 38 3.3 63 63 undefined N/A 30.36 1028 N/A 0 0
5:54 am 05:54 undefined 50 10 38 3.3 63 63 undefined N/A 30.39 1029 N/A 0 0
6:54 am 06:54 undefined 51 10.6 38 3.3 61 61 undefined N/A 30.41 1030 N/A 0 0
7:54 am 07:54 undefined 51 10.6 37 2.8 59 59 undefined N/A 30.43 1031 N/A 0 0
8:54 am 08:54 undefined 51 10.6 37 2.8 59 59 undefined N/A 30.45 1031 N/A 0 0
9:54 am 09:54 undefined 53 11.7 37 2.8 55 55 undefined N/A 30.46 1032 N/A 0 0
10:54 am 10:54 undefined 54 12.2 35 1.7 49 49 undefined N/A 30.47 1032 N/A 0 0
11:54 am 11:54 undefined 55 12.8 35 1.7 47 47 undefined N/A 30.47 1032 N/A 0 0
12:54 pm 12:54 undefined 56 13.3 35 1.7 46 46 undefined N/A 30.45 1031 N/A 0 0
1:54 pm 13:54 undefined 57 13.9 34 1.1 42 42 undefined N/A 30.44 1031 N/A 0 0
2:54 pm 14:54 undefined 58 14.4 32 0 38 38 undefined N/A 30.42 1030 N/A 0 0
3:54 pm 15:54 undefined 59 15 32 0 36 36 undefined N/A 30.41 1030 N/A 0 0
4:54 pm 16:54 undefined 56 13.3 37 2.8 49 49 undefined N/A 30.42 1030 N/A 0 0
5:54 pm 17:54 undefined 55 12.8 37 2.8 51 51 undefined N/A 30.43 1030 N/A 0 0
6:54 pm 18:54 undefined 54 12.2 37 2.8 53 53 undefined N/A 30.44 1031 N/A 0 0
7:54 pm 19:54 undefined 54 12.2 35 1.7 49 49 undefined N/A 30.45 1031 N/A 0 0
8:54 pm 20:54 undefined 53 11.7 36 2.2 52 52 undefined N/A 30.45 1031 N/A 0 0
9:54 pm 21:54 undefined 51 10.6 39 3.9 64 64 undefined N/A 30.48 1032 N/A 0 0
10:54 pm 22:54 undefined 49 9.4 40 4.4 71 71 undefined N/A 30.49 1033 N/A 0 0
11:54 pm 23:54 undefined 50 10 39 3.9 66 66 undefined N/A 30.49 1033 N/A 0 0

Powered by AerisWeather